Weather History for PAGM - January, 2014

Change the Weather History Date:

Thursday, January 2, 2014

  Actual Average Record
Temperature  
Mean Temperature 12 °F -  
Max Temperature 15 °F 10 °F - (-1)
Min Temperature 8 °F 3 °F - (-1)
Degree Days  
Heating Degree Days 54    
Moisture  
Dew Point 9 °F    
Average Humidity 85    
Maximum Humidity 93    
Minimum Humidity 73    
Precipitation  
Precipitation 6.52 in - - ()
Sea Level Pressure  
Sea Level Pressure 29.64 in    
Wind  
Wind Speed 18 mph (NE)    
Max Wind Speed 26 mph    
Max Gust Speed 25 mph    
Visibility 10 miles    
Events      
Averages and records for this station are not official NWS values.
T = Trace of Precipitation, MM = Missing Value Source: NWS Daily Summary

Daily Weather History Graph

Daily Weather History Graph

Search for Another Location

Airport or City:

Trip Planner

Search our weather history database for the weather conditions in past years. The results will help you decide how hot, cold, wet, or windy it might be!

Date:

Astronomy

Jan. 02, 2014 Rise Set
Actual Time 12:11 PM AKST 4:51 PM AKST
Civil Twilight 10:58 AM AKST 6:04 PM AKST
Nautical Twilight 9:51 AM AKST 7:10 PM AKST
Astronomical Twilight 8:53 AM AKST 8:09 PM AKST
Moon 12:02 PM AKST (1/2) 8:12 PM AKST (1/2)
Length of Visible Light 7h 06m
Length of Day
4h 39m
Waxing Crescent, 3% of the Moon is Illuminated
Jan 2
Waxing Crescent
Jan 7
First Quarter
Jan 15
Full
Jan 23
Last Quarter
Jan 30
New

Hourly Weather History & Observations

Time (AKST) Temp. Windchill Dew Point Humidity Pressure Visibility Wind Dir Wind Speed Gust Speed Precip Events Conditions
12:16 AM 15.8 °F 0.9 °F 10.4 °F 79% 29.55 in 10.0 mi NE 15.0 mph - 0.03 in   Clear
12:36 AM 15.8 °F 0.9 °F 8.6 °F 73% 29.56 in 10.0 mi NE 15.0 mph - 0.10 in   Clear
12:56 AM 14.0 °F -3.0 °F 8.6 °F 79% 29.55 in 10.0 mi NE 18.4 mph - 0.36 in   Clear
1:16 AM 14.0 °F -1.4 °F 8.6 °F 79% 29.56 in 10.0 mi NE 15.0 mph - 0.05 in   Clear
1:36 AM 12.2 °F -3.1 °F 8.6 °F 85% 29.58 in 10.0 mi ENE 13.8 mph - 0.10 in   Clear
1:56 AM 12.2 °F -3.1 °F 8.6 °F 85% 29.59 in 10.0 mi ENE 13.8 mph - 0.20 in   Clear
2:16 AM 12.2 °F -4.8 °F 6.8 °F 79% 29.59 in 10.0 mi ENE 17.3 mph - 0.07 in   Clear
2:36 AM 12.2 °F -5.3 °F 6.8 °F 79% 29.60 in 10.0 mi ENE 18.4 mph - 0.18 in   Clear
2:56 AM 12.2 °F -5.8 °F 6.8 °F 79% 29.61 in 10.0 mi ENE 19.6 mph - 0.27 in   Clear
3:16 AM 12.2 °F -4.8 °F 6.8 °F 79% 29.61 in 10.0 mi ENE 17.3 mph - 0.03 in   Clear
3:36 AM 12.2 °F -4.3 °F 6.8 °F 79% 29.61 in 10.0 mi ENE 16.1 mph - 0.06 in   Clear
3:56 AM 12.2 °F -6.3 °F 6.8 °F 79% 29.60 in 10.0 mi ENE 20.7 mph - 0.11 in   Clear
4:16 AM 12.2 °F -4.8 °F 6.8 °F 79% 29.61 in 10.0 mi ENE 17.3 mph - 0.25 in   Clear
4:36 AM 12.2 °F -4.8 °F 6.8 °F 79% 29.62 in 10.0 mi East 17.3 mph - 0.35 in   Clear
4:56 AM 12.2 °F -4.3 °F 6.8 °F 79% 29.62 in 10.0 mi ENE 16.1 mph - 0.60 in   Clear
5:16 AM 10.4 °F -7.7 °F 6.8 °F 85% 29.62 in 10.0 mi East 18.4 mph - 0.09 in   Clear
5:36 AM 10.4 °F -6.6 °F 6.8 °F 85% 29.62 in 10.0 mi ENE 16.1 mph - 0.55 in   Clear
5:56 AM 10.4 °F -6.0 °F 6.8 °F 85% 29.62 in 10.0 mi ENE 15.0 mph - 0.81 in   Clear
6:16 AM 10.4 °F -7.7 °F 5.0 °F 79% 29.62 in 10.0 mi ENE 18.4 mph - 0.09 in   Clear
6:36 AM 10.4 °F -7.2 °F 5.0 °F 79% 29.62 in 10.0 mi ENE 17.3 mph - 0.17 in   Clear
6:56 AM 10.4 °F -6.6 °F 6.8 °F 85% 29.63 in 10.0 mi NE 16.1 mph - 0.29 in   Clear
7:16 AM 10.4 °F -6.6 °F 6.8 °F 85% 29.63 in 10.0 mi ENE 16.1 mph - 0.05 in   Clear
7:36 AM 10.4 °F -6.6 °F 6.8 °F 85% 29.64 in 10.0 mi ENE 16.1 mph - 0.06 in   Clear
7:56 AM 10.4 °F -6.0 °F 6.8 °F 85% 29.64 in 10.0 mi NE 15.0 mph - 0.11 in   Clear
8:16 AM 10.4 °F -5.4 °F 6.8 °F 85% 29.64 in 10.0 mi NE 13.8 mph - 0.05 in   Clear
8:36 AM 10.4 °F -6.0 °F 6.8 °F 85% 29.64 in 10.0 mi ENE 15.0 mph - 0.10 in   Clear
8:56 AM 10.4 °F -7.2 °F 6.8 °F 85% 29.64 in 10.0 mi NE 17.3 mph - 0.12 in   Partly Cloudy
9:16 AM 10.4 °F -6.0 °F 6.8 °F 85% 29.64 in 10.0 mi ENE 15.0 mph - 0.23 in   Partly Cloudy
9:36 AM 10.4 °F -5.4 °F 6.8 °F 85% 29.66 in 10.0 mi ENE 13.8 mph - 0.32 in   Mostly Cloudy
9:56 AM 10.4 °F -6.0 °F 6.8 °F 85% 29.66 in 10.0 mi NE 15.0 mph - 0.47 in   Overcast
10:16 AM 10.4 °F -7.2 °F 6.8 °F 85% 29.67 in 10.0 mi NE 17.3 mph - 0.07 in   Scattered Clouds
10:36 AM 8.6 °F -8.3 °F 6.8 °F 92% 29.67 in 10.0 mi ENE 15.0 mph - 0.17 in   Partly Cloudy
10:56 AM 8.6 °F -7.7 °F 6.8 °F 92% 29.67 in 10.0 mi ENE 13.8 mph - 0.33 in   Mostly Cloudy
11:16 AM 8.6 °F -8.9 °F 6.8 °F 92% 29.68 in 10.0 mi NE 16.1 mph - 0.21 in   Mostly Cloudy
11:36 AM 10.4 °F -8.2 °F 5.0 °F 79% 29.67 in 10.0 mi NE 19.6 mph - 0.44 in   Scattered Clouds
11:56 AM 10.4 °F -8.2 °F 6.8 °F 85% 29.67 in 10.0 mi NE 19.6 mph - 0.75 in   Scattered Clouds
12:16 PM 10.4 °F -8.2 °F 6.8 °F 85% 29.67 in 10.0 mi NE 19.6 mph - 0.18 in   Mostly Cloudy
12:36 PM 10.4 °F -8.2 °F 6.8 °F 85% 29.68 in 10.0 mi ENE 19.6 mph - 0.28 in   Mostly Cloudy
12:56 PM 10.4 °F -8.6 °F 8.6 °F 92% 29.67 in 10.0 mi NE 20.7 mph - 0.39 in   Overcast
1:16 PM 10.4 °F -8.6 °F 8.6 °F 92% 29.67 in 10.0 mi ENE 20.7 mph - 0.21 in   Overcast
1:36 PM 10.4 °F -9.5 °F 8.6 °F 92% 29.67 in 10.0 mi ENE 23.0 mph - 0.34 in   Overcast
1:56 PM 10.4 °F -9.5 °F 8.6 °F 92% 29.66 in 10.0 mi ENE 23.0 mph - 0.44 in   Overcast
2:16 PM 12.2 °F -7.1 °F 8.6 °F 85% 29.66 in 10.0 mi NE 23.0 mph - 0.12 in   Overcast
2:36 PM 12.2 °F -7.5 °F 8.6 °F 85% 29.66 in 10.0 mi NE 24.2 mph - 0.28 in   Overcast
2:56 PM 12.2 °F -6.7 °F 10.4 °F 92% 29.66 in 10.0 mi NE 21.9 mph - 0.33 in   Overcast
3:16 PM 12.2 °F -6.7 °F 10.4 °F 92% 29.66 in 10.0 mi NE 21.9 mph - 0.15 in   Overcast
3:36 PM 12.2 °F -5.8 °F 10.4 °F 92% 29.65 in 10.0 mi NE 19.6 mph - 0.18 in   Overcast
3:56 PM 14.0 °F -5.1 °F 10.4 °F 86% 29.64 in 10.0 mi NE 24.2 mph - 0.28 in   Overcast
4:16 PM 14.0 °F -4.7 °F 10.4 °F 86% 29.64 in 10.0 mi NE 23.0 mph - 0.02 in   Overcast
4:36 PM 14.0 °F -4.3 °F 10.4 °F 86% 29.64 in 10.0 mi NE 21.9 mph - 0.09 in   Overcast
4:56 PM 14.0 °F -4.3 °F 10.4 °F 86% 29.63 in 10.0 mi NE 21.9 mph - 0.15 in   Overcast
5:16 PM 14.0 °F -3.0 °F 12.2 °F 93% 29.64 in 10.0 mi NE 18.4 mph - 0.03 in   Overcast
5:36 PM 15.8 °F -1.9 °F 12.2 °F 86% 29.64 in 10.0 mi NE 21.9 mph - 0.05 in   Overcast
5:56 PM 15.8 °F -1.1 °F 12.2 °F 86% 29.65 in 10.0 mi NE 19.6 mph 25.3 mph 0.08 in   Overcast
6:16 PM 15.8 °F -1.5 °F 12.2 °F 86% 29.65 in 10.0 mi NE 20.7 mph - 0.05 in   Overcast
6:36 PM 15.8 °F -3.1 °F 12.2 °F 86% 29.63 in 10.0 mi NE 25.3 mph - 0.07 in   Overcast
6:56 PM 15.8 °F -3.1 °F 12.2 °F 86% 29.64 in 10.0 mi NE 25.3 mph - 0.11 in   Overcast
7:16 PM 15.8 °F -1.9 °F 12.2 °F 86% 29.65 in 10.0 mi NE 21.9 mph - 0.01 in   Overcast
7:36 PM 15.8 °F -3.4 °F 12.2 °F 86% 29.65 in 10.0 mi ENE 26.5 mph - 0.03 in   Overcast
7:56 PM 15.8 °F -2.7 °F 12.2 °F 86% 29.65 in 8.0 mi NE 24.2 mph - 0.05 in   Overcast
8:16 PM 14.0 °F -5.1 °F 10.4 °F 86% 29.65 in 9.0 mi NE 24.2 mph - 0.02 in   Overcast
8:36 PM 14.0 °F -4.3 °F 12.2 °F 93% 29.65 in 10.0 mi NE 21.9 mph - 0.10 in   Overcast
8:56 PM 15.8 °F -1.5 °F 12.2 °F 86% 29.65 in 10.0 mi NE 20.7 mph - 0.11 in   Overcast
9:16 PM 14.0 °F -5.1 °F 10.4 °F 86% 29.65 in 10.0 mi NE 24.2 mph - 0.03 in   Overcast
9:36 PM 14.0 °F -4.7 °F 10.4 °F 86% 29.65 in 10.0 mi NE 23.0 mph - 0.04 in   Overcast
9:56 PM 14.0 °F -3.9 °F 10.4 °F 86% 29.65 in 10.0 mi NE 20.7 mph - 0.07 in   Overcast
10:16 PM 14.0 °F -3.4 °F 12.2 °F 93% 29.66 in 10.0 mi NE 19.6 mph - 0.01 in   Overcast
10:36 PM 14.0 °F -4.3 °F 12.2 °F 93% 29.67 in 10.0 mi NE 21.9 mph - 0.02 in   Overcast
10:56 PM 14.0 °F -3.4 °F 10.4 °F 86% 29.67 in 10.0 mi NE 19.6 mph - 0.06 in   Overcast
11:16 PM 14.0 °F -3.0 °F 10.4 °F 86% 29.67 in 10.0 mi NE 18.4 mph - N/A   Overcast
11:36 PM 14.0 °F -3.9 °F 12.2 °F 93% 29.67 in 3.0 mi NE 20.7 mph - 0.03 in   Overcast
11:56 PM 15.8 °F -1.1 °F 14.0 °F 93% 29.66 in 4.0 mi NE 19.6 mph - 0.03 in   Overcast